date,time,SUV Intensity [MED/Hr],UV Index,Daily total [MED],Since Last [MED]
31/03/2022,00:06:21,-0.001,0.0,0.0,0.0
31/03/2022,00:07:21,-0.000,0.0,0.0,0.0
31/03/2022,00:08:21,0.000,0.0,0.0,0.0
31/03/2022,00:09:30,0.000,0.0,0.0,0.0
31/03/2022,00:10:21,0.000,0.0,0.0,0.0
31/03/2022,00:11:21,-0.000,0.0,0.0,0.0
31/03/2022,00:12:21,-0.001,0.0,0.0,0.0
31/03/2022,00:13:21,0.000,0.0,0.0,0.0
31/03/2022,00:14:21,-0.000,0.0,0.0,0.0
31/03/2022,00:15:21,0.001,0.0,0.0,0.0
31/03/2022,00:16:21,-0.000,0.0,0.0,0.0
31/03/2022,00:17:21,0.000,0.0,0.0,0.0
31/03/2022,00:18:21,0.000,0.0,0.0,0.0
31/03/2022,00:19:29,0.000,0.0,0.0,0.0
31/03/2022,00:21:22,0.000,0.0,0.0,0.0
31/03/2022,00:22:21,0.000,0.0,0.0,0.0
31/03/2022,00:23:22,0.000,0.0,0.0,0.0
31/03/2022,00:24:22,0.000,0.0,0.0,0.0
31/03/2022,00:25:21,-0.000,0.0,0.0,0.0
31/03/2022,00:26:22,0.000,0.0,0.0,0.0
31/03/2022,00:27:21,0.000,0.0,0.0,0.0
31/03/2022,00:28:21,0.001,0.0,0.0,0.0
31/03/2022,00:29:21,0.000,0.0,0.0,0.0
31/03/2022,00:30:29,0.000,0.0,0.0,0.0
31/03/2022,00:32:22,-0.001,0.0,0.0,0.0
31/03/2022,00:33:21,0.001,0.0,0.0,0.0
31/03/2022,00:34:21,0.001,0.0,0.0,0.0
31/03/2022,00:35:21,0.001,0.0,0.0,0.0
31/03/2022,00:36:21,0.000,0.0,0.0,0.0
31/03/2022,00:37:21,0.000,0.0,0.0,0.0
31/03/2022,00:38:22,0.000,0.0,0.0,0.0
31/03/2022,00:39:21,0.001,0.0,0.0,0.0
31/03/2022,00:40:21,-0.000,0.0,0.0,0.0
31/03/2022,00:41:21,-0.001,0.0,0.0,0.0
31/03/2022,00:42:21,0.000,0.0,0.0,0.0
31/03/2022,00:43:21,0.000,0.0,0.0,0.0
31/03/2022,00:44:29,-0.001,0.0,0.0,0.0
31/03/2022,00:45:21,0.000,0.0,0.0,0.0
31/03/2022,00:46:21,-0.000,0.0,0.0,0.0
31/03/2022,00:47:21,0.001,0.0,0.0,0.0
31/03/2022,00:48:21,-0.000,0.0,0.0,0.0
31/03/2022,00:49:21,0.000,0.0,0.0,0.0
31/03/2022,00:50:29,0.000,0.0,0.0,0.0
31/03/2022,00:51:21,-0.000,0.0,0.0,0.0
31/03/2022,00:52:22,0.001,0.0,0.0,0.0
31/03/2022,00:53:22,0.000,0.0,0.0,0.0
31/03/2022,00:54:21,0.000,0.0,0.0,0.0
31/03/2022,00:55:21,-0.000,0.0,0.0,0.0
31/03/2022,00:56:22,0.001,0.0,0.0,0.0
31/03/2022,00:57:22,-0.000,0.0,0.0,0.0
31/03/2022,00:58:21,0.001,0.0,0.0,0.0
31/03/2022,00:59:21,-0.001,0.0,0.0,0.0
31/03/2022,01:00:22,0.000,0.0,0.0,0.0
31/03/2022,01:01:21,0.000,0.0,0.0,0.0
31/03/2022,01:02:21,0.000,0.0,0.0,0.0
31/03/2022,01:03:21,0.000,0.0,0.0,0.0
31/03/2022,01:04:22,0.000,0.0,0.0,0.0
31/03/2022,01:05:22,0.000,0.0,0.0,0.0
31/03/2022,01:06:38,-0.000,0.0,0.0,0.0
31/03/2022,01:08:22,0.001,0.0,0.0,0.0
31/03/2022,01:09:22,0.000,0.0,0.0,0.0
31/03/2022,01:10:21,-0.000,0.0,0.0,0.0
31/03/2022,01:11:30,-0.000,0.0,0.0,0.0
31/03/2022,01:13:22,-0.000,0.0,0.0,0.0
31/03/2022,01:14:22,0.000,0.0,0.0,0.0
31/03/2022,01:15:22,-0.000,0.0,0.0,0.0
31/03/2022,01:16:22,-0.001,0.0,0.0,0.0
31/03/2022,01:17:21,0.000,0.0,0.0,0.0
31/03/2022,01:18:21,0.001,0.0,0.0,0.0
31/03/2022,01:19:22,-0.000,0.0,0.0,0.0
31/03/2022,01:20:23,0.000,0.0,0.0,0.0
31/03/2022,01:21:29,-0.000,0.0,0.0,0.0
31/03/2022,01:22:28,0.000,0.0,0.0,0.0
31/03/2022,01:23:21,-0.001,0.0,0.0,0.0
31/03/2022,01:24:21,-0.001,0.0,0.0,0.0
31/03/2022,01:25:21,-0.000,0.0,0.0,0.0
31/03/2022,01:26:21,0.000,0.0,0.0,0.0
31/03/2022,01:27:21,-0.000,0.0,0.0,0.0
31/03/2022,01:28:21,-0.000,0.0,0.0,0.0
31/03/2022,01:29:21,-0.000,0.0,0.0,0.0
31/03/2022,01:30:21,0.000,0.0,0.0,0.0
31/03/2022,01:31:21,0.001,0.0,0.0,0.0
31/03/2022,01:32:21,-0.000,0.0,0.0,0.0
31/03/2022,01:33:21,-0.000,0.0,0.0,0.0
31/03/2022,01:34:21,-0.000,0.0,0.0,0.0
31/03/2022,01:35:21,-0.000,0.0,0.0,0.0
31/03/2022,01:36:21,0.001,0.0,0.0,0.0
31/03/2022,01:37:21,-0.001,0.0,0.0,0.0
31/03/2022,01:38:21,-0.000,0.0,0.0,0.0
31/03/2022,01:39:21,0.000,0.0,0.0,0.0
31/03/2022,01:40:22,-0.001,0.0,0.0,0.0
31/03/2022,01:41:21,-0.000,0.0,0.0,0.0
31/03/2022,01:42:22,0.000,0.0,0.0,0.0
31/03/2022,01:43:29,0.000,0.0,0.0,0.0
31/03/2022,01:44:20,0.000,0.0,0.0,0.0
31/03/2022,01:45:21,-0.000,0.0,0.0,0.0
31/03/2022,01:46:22,-0.001,0.0,0.0,0.0
31/03/2022,01:47:21,0.000,0.0,0.0,0.0
31/03/2022,01:48:22,-0.000,0.0,0.0,0.0
31/03/2022,01:49:21,0.000,0.0,0.0,0.0
31/03/2022,01:50:21,-0.001,0.0,0.0,0.0
31/03/2022,01:51:21,0.000,0.0,0.0,0.0
31/03/2022,01:52:21,-0.001,0.0,0.0,0.0
31/03/2022,01:53:29,0.001,0.0,0.0,0.0
31/03/2022,01:55:22,-0.000,0.0,0.0,0.0
31/03/2022,01:56:22,-0.001,0.0,0.0,0.0
31/03/2022,01:57:21,0.000,0.0,0.0,0.0
31/03/2022,01:58:21,-0.000,0.0,0.0,0.0
31/03/2022,01:59:21,-0.000,0.0,0.0,0.0
31/03/2022,02:00:22,-0.001,0.0,0.0,0.0
31/03/2022,02:01:21,0.001,0.0,0.0,0.0
31/03/2022,02:02:21,0.001,0.0,0.0,0.0
31/03/2022,02:03:31,0.000,0.0,0.0,0.0
31/03/2022,02:05:21,-0.000,0.0,0.0,0.0
31/03/2022,02:06:21,0.001,0.0,0.0,0.0
31/03/2022,02:07:21,0.000,0.0,0.0,0.0
31/03/2022,02:08:21,0.000,0.0,0.0,0.0
31/03/2022,02:09:22,0.000,0.0,0.0,0.0
31/03/2022,02:10:22,0.000,0.0,0.0,0.0
31/03/2022,02:13:32,0.000,0.0,0.0,0.0
31/03/2022,02:14:21,-0.000,0.0,0.0,0.0
31/03/2022,02:15:22,-0.000,0.0,0.0,0.0
31/03/2022,02:16:22,-0.000,0.0,0.0,0.0
31/03/2022,02:17:30,-0.000,0.0,0.0,0.0
31/03/2022,02:18:21,0.000,0.0,0.0,0.0
31/03/2022,02:19:21,0.001,0.0,0.0,0.0
31/03/2022,02:20:22,-0.000,0.0,0.0,0.0
31/03/2022,02:21:21,0.001,0.0,0.0,0.0
31/03/2022,02:22:21,-0.001,0.0,0.0,0.0
31/03/2022,02:23:21,0.000,0.0,0.0,0.0
31/03/2022,02:24:21,0.000,0.0,0.0,0.0
31/03/2022,02:25:22,0.000,0.0,0.0,0.0
31/03/2022,02:26:21,0.000,0.0,0.0,0.0
31/03/2022,02:27:21,0.000,0.0,0.0,0.0
31/03/2022,02:28:21,0.001,0.0,0.0,0.0
31/03/2022,02:29:22,-0.000,0.0,0.0,0.0
31/03/2022,02:30:21,0.000,0.0,0.0,0.0
31/03/2022,02:31:22,0.000,0.0,0.0,0.0
31/03/2022,02:32:22,0.000,0.0,0.0,0.0
31/03/2022,02:33:22,0.001,0.0,0.0,0.0
31/03/2022,02:34:21,-0.001,0.0,0.0,0.0
31/03/2022,02:35:21,-0.001,0.0,0.0,0.0
31/03/2022,02:36:22,-0.000,0.0,0.0,0.0
31/03/2022,02:37:21,0.000,0.0,0.0,0.0
31/03/2022,02:38:21,-0.001,0.0,0.0,0.0
31/03/2022,02:39:21,0.000,0.0,0.0,0.0
31/03/2022,02:40:22,0.000,0.0,0.0,0.0
31/03/2022,02:41:22,0.000,0.0,0.0,0.0
31/03/2022,02:42:30,-0.000,0.0,0.0,0.0
31/03/2022,02:43:20,-0.000,0.0,0.0,0.0
31/03/2022,02:44:21,0.000,0.0,0.0,0.0
31/03/2022,02:45:30,0.000,0.0,0.0,0.0
31/03/2022,02:46:22,-0.001,0.0,0.0,0.0
31/03/2022,02:47:21,0.000,0.0,0.0,0.0
31/03/2022,02:48:21,0.000,0.0,0.0,0.0
31/03/2022,02:49:21,-0.001,0.0,0.0,0.0
31/03/2022,02:50:21,-0.000,0.0,0.0,0.0
31/03/2022,02:51:21,-0.001,0.0,0.0,0.0
31/03/2022,02:52:21,0.001,0.0,0.0,0.0
31/03/2022,02:53:21,0.000,0.0,0.0,0.0
31/03/2022,02:54:21,0.000,0.0,0.0,0.0
31/03/2022,02:55:21,0.000,0.0,0.0,0.0
31/03/2022,02:56:21,0.001,0.0,0.0,0.0
31/03/2022,02:57:22,0.000,0.0,0.0,0.0
31/03/2022,02:58:22,-0.000,0.0,0.0,0.0
31/03/2022,02:59:21,0.000,0.0,0.0,0.0
31/03/2022,03:00:21,0.001,0.0,0.0,0.0
31/03/2022,03:01:22,0.000,0.0,0.0,0.0
31/03/2022,03:02:21,-0.000,0.0,0.0,0.0
31/03/2022,03:03:21,-0.000,0.0,0.0,0.0
31/03/2022,03:04:22,0.001,0.0,0.0,0.0
31/03/2022,03:05:21,0.000,0.0,0.0,0.0
31/03/2022,03:06:30,0.001,0.0,0.0,0.0
31/03/2022,03:08:22,-0.001,0.0,0.0,0.0
31/03/2022,03:09:22,0.000,0.0,0.0,0.0
31/03/2022,03:10:22,0.000,0.0,0.0,0.0
31/03/2022,03:11:21,0.000,0.0,0.0,0.0
31/03/2022,03:12:21,0.000,0.0,0.0,0.0
31/03/2022,03:13:21,0.000,0.0,0.0,0.0
31/03/2022,03:14:30,0.000,0.0,0.0,0.0
31/03/2022,03:15:20,0.000,0.0,0.0,0.0
31/03/2022,03:16:21,0.000,0.0,0.0,0.0
31/03/2022,03:17:22,0.001,0.0,0.0,0.0
31/03/2022,03:18:21,0.001,0.0,0.0,0.0
31/03/2022,03:19:21,0.001,0.0,0.0,0.0
31/03/2022,03:20:22,0.000,0.0,0.0,0.0
31/03/2022,03:21:22,0.001,0.0,0.0,0.0
31/03/2022,03:22:21,0.000,0.0,0.0,0.0
31/03/2022,03:23:22,0.000,0.0,0.0,0.0
31/03/2022,03:24:21,0.000,0.0,0.0,0.0
31/03/2022,03:25:21,0.000,0.0,0.0,0.0
31/03/2022,03:26:22,0.001,0.0,0.0,0.0
31/03/2022,03:27:22,0.000,0.0,0.0,0.0
31/03/2022,03:28:21,0.001,0.0,0.0,0.0
31/03/2022,03:29:21,0.000,0.0,0.0,0.0
31/03/2022,03:30:21,0.002,0.0,0.0,0.0
31/03/2022,03:31:22,0.000,0.0,0.0,0.0
31/03/2022,03:32:21,0.001,0.0,0.0,0.0
31/03/2022,03:33:22,0.001,0.0,0.0,0.0
31/03/2022,03:34:22,-0.000,0.0,0.0,0.0
31/03/2022,03:35:30,0.001,0.0,0.0,0.0
31/03/2022,03:36:21,0.001,0.0,0.0,0.0
31/03/2022,03:37:21,0.002,0.0,0.0,0.0
31/03/2022,03:38:21,-0.000,0.0,0.0,0.0
31/03/2022,03:39:22,0.000,0.0,0.0,0.0
31/03/2022,03:40:21,0.001,0.0,0.0,0.0
31/03/2022,03:41:21,0.001,0.0,0.0,0.0
31/03/2022,03:42:22,0.001,0.0,0.0,0.0
31/03/2022,03:43:22,-0.001,0.0,0.0,0.0
31/03/2022,03:44:21,0.001,0.0,0.0,0.0
31/03/2022,03:45:22,-0.000,0.0,0.0,0.0
31/03/2022,03:46:21,0.000,0.0,0.0,0.0
31/03/2022,03:47:22,0.001,0.0,0.0,0.0
31/03/2022,03:48:22,0.000,0.0,0.0,0.0
31/03/2022,03:49:22,0.000,0.0,0.0,0.0
31/03/2022,03:50:22,0.001,0.0,0.0,0.0
31/03/2022,03:51:22,0.001,0.0,0.0,0.0
31/03/2022,03:52:22,0.001,0.0,0.0,0.0
31/03/2022,03:53:22,0.000,0.0,0.0,0.0
31/03/2022,03:54:22,0.001,0.0,0.0,0.0
31/03/2022,03:55:22,0.000,0.0,0.0,0.0
31/03/2022,03:56:23,0.001,0.0,0.0,0.0
31/03/2022,03:57:22,0.001,0.0,0.0,0.0
31/03/2022,03:58:21,0.002,0.0,0.0,0.0
31/03/2022,03:59:29,0.001,0.0,0.0,0.0
31/03/2022,04:01:22,0.000,0.0,0.0,0.0
31/03/2022,04:02:22,0.001,0.0,0.0,0.0
31/03/2022,04:03:22,0.001,0.0,0.0,0.0
31/03/2022,04:04:21,-0.000,0.0,0.0,0.0
31/03/2022,04:05:21,0.001,0.0,0.0,0.0
31/03/2022,04:06:30,0.001,0.0,0.0,0.0
31/03/2022,04:08:22,0.002,0.0,0.0,0.0
31/03/2022,04:09:22,0.001,0.0,0.0,0.0
31/03/2022,04:10:21,0.001,0.0,0.0,0.0
31/03/2022,04:11:22,0.000,0.0,0.0,0.0
31/03/2022,04:12:21,0.001,0.0,0.0,0.0
31/03/2022,04:13:21,0.001,0.0,0.0,0.0
31/03/2022,04:14:30,0.001,0.0,0.0,0.0
31/03/2022,04:16:22,0.001,0.0,0.0,0.0
31/03/2022,04:17:22,0.001,0.0,0.0,0.0
31/03/2022,04:18:21,0.002,0.0,0.0,0.0
31/03/2022,04:19:21,0.001,0.0,0.0,0.0
31/03/2022,04:20:21,0.001,0.0,0.0,0.0
31/03/2022,04:21:21,0.001,0.0,0.0,0.0
31/03/2022,04:22:22,0.001,0.0,0.0,0.0
31/03/2022,04:23:21,0.000,0.0,0.0,0.0
31/03/2022,04:24:30,0.002,0.0,0.0,0.0
31/03/2022,04:25:29,0.001,0.0,0.0,0.0
31/03/2022,04:27:22,0.000,0.0,0.0,0.0
31/03/2022,04:28:21,0.002,0.0,0.0,0.0
31/03/2022,04:29:21,0.001,0.0,0.0,0.0
31/03/2022,04:30:21,0.002,0.0,0.0,0.0
31/03/2022,04:31:21,0.001,0.0,0.0,0.0
31/03/2022,04:32:30,0.002,0.0,0.0,0.0
31/03/2022,04:33:21,0.001,0.0,0.0,0.0
31/03/2022,04:34:22,0.000,0.0,0.0,0.0
31/03/2022,04:35:30,0.001,0.0,0.0,0.0
31/03/2022,04:37:23,0.002,0.0,0.0,0.0
31/03/2022,04:38:22,0.001,0.0,0.0,0.0
31/03/2022,04:39:21,0.000,0.0,0.0,0.0
31/03/2022,04:40:22,0.000,0.0,0.0,0.0
31/03/2022,04:41:21,0.001,0.0,0.0,0.0
31/03/2022,04:42:22,0.001,0.0,0.0,0.0
31/03/2022,04:43:21,0.000,0.0,0.0,0.0
31/03/2022,04:44:21,0.001,0.0,0.0,0.0
31/03/2022,04:45:29,0.001,0.0,0.0,0.0
31/03/2022,04:46:20,0.001,0.0,0.0,0.0
31/03/2022,04:47:22,0.001,0.0,0.0,0.0
31/03/2022,04:48:22,0.001,0.0,0.0,0.0
31/03/2022,04:49:22,0.001,0.0,0.0,0.0
31/03/2022,04:50:30,0.001,0.0,0.0,0.0
31/03/2022,04:51:21,0.000,0.0,0.0,0.0
31/03/2022,04:52:22,0.001,0.0,0.0,0.0
31/03/2022,04:53:21,0.000,0.0,0.0,0.0
31/03/2022,04:54:21,0.002,0.0,0.0,0.0
31/03/2022,04:55:22,0.001,0.0,0.0,0.0
31/03/2022,04:56:21,0.001,0.0,0.0,0.0
31/03/2022,04:57:21,0.000,0.0,0.0,0.0
31/03/2022,04:58:22,0.001,0.0,0.0,0.0
31/03/2022,04:59:22,0.002,0.0,0.0,0.0
31/03/2022,05:00:29,0.002,0.0,0.0,0.0
31/03/2022,05:02:22,0.001,0.0,0.0,0.0
31/03/2022,05:03:21,0.001,0.0,0.0,0.0
31/03/2022,05:04:21,0.002,0.0,0.0,0.0
31/03/2022,05:05:22,0.001,0.0,0.0,0.0
31/03/2022,05:06:22,0.001,0.0,0.0,0.0
31/03/2022,05:07:21,0.001,0.0,0.0,0.0
31/03/2022,05:08:21,0.002,0.0,0.0,0.0
31/03/2022,05:09:21,0.001,0.0,0.0,0.0
31/03/2022,05:10:21,0.000,0.0,0.0,0.0
31/03/2022,05:11:29,0.000,0.0,0.0,0.0
31/03/2022,05:13:23,0.001,0.0,0.0,0.0
31/03/2022,05:14:22,0.001,0.0,0.0,0.0
31/03/2022,05:15:22,0.001,0.0,0.0,0.0
31/03/2022,05:16:22,0.002,0.0,0.0,0.0
31/03/2022,05:17:22,0.001,0.0,0.0,0.0
31/03/2022,05:18:30,0.001,0.0,0.0,0.0
31/03/2022,05:19:21,0.001,0.0,0.0,0.0
31/03/2022,05:20:22,0.001,0.0,0.0,0.0
31/03/2022,05:21:22,0.001,0.0,0.0,0.0
31/03/2022,05:22:21,0.001,0.0,0.0,0.0
31/03/2022,05:23:22,0.001,0.0,0.0,0.0
31/03/2022,05:24:22,0.001,0.0,0.0,0.0
31/03/2022,05:25:21,0.001,0.0,0.0,0.0
31/03/2022,05:26:30,0.002,0.0,0.0,0.0
31/03/2022,05:28:22,0.001,0.0,0.0,0.0
31/03/2022,05:29:21,0.001,0.0,0.0,0.0
31/03/2022,05:30:13,0.002,0.0,0.0,0.0
31/03/2022,05:31:22,0.001,0.0,0.0,0.0
31/03/2022,05:32:21,0.001,0.0,0.0,0.0
31/03/2022,05:33:21,0.001,0.0,0.0,0.0
31/03/2022,05:34:22,0.002,0.0,0.0,0.0
31/03/2022,05:35:22,0.002,0.0,0.0,0.0
31/03/2022,05:36:21,0.002,0.0,0.0,0.0
31/03/2022,05:37:22,0.002,0.0,0.0,0.0
31/03/2022,05:38:22,0.002,0.0,0.0,0.0
31/03/2022,05:39:22,0.002,0.0,0.0,0.0
31/03/2022,05:40:22,0.001,0.0,0.0,0.0
31/03/2022,05:41:22,0.002,0.0,0.0,0.0
31/03/2022,05:42:21,0.002,0.0,0.0,0.0
31/03/2022,05:43:22,0.002,0.0,0.0,0.0
31/03/2022,05:44:22,0.002,0.0,0.0,0.0
31/03/2022,05:45:21,0.002,0.0,0.0,0.0
31/03/2022,05:46:21,0.003,0.0,0.0,0.0
31/03/2022,05:57:40,0.004,0.0,0.0,0.0
31/03/2022,05:58:22,0.005,0.0,0.0,0.0
31/03/2022,05:59:23,0.005,0.0,0.0,0.0
31/03/2022,06:00:22,0.006,0.0,0.0,0.0
31/03/2022,06:01:30,0.006,0.0,0.0,0.0
31/03/2022,06:03:22,0.006,0.0,0.0,0.0
31/03/2022,06:04:23,0.006,0.0,0.0,0.0
31/03/2022,06:05:22,0.007,0.0,0.0,0.0
31/03/2022,06:06:30,0.007,0.0,0.0,0.0
31/03/2022,06:07:22,0.007,0.0,0.001,0.001
31/03/2022,06:08:21,0.008,0.0,0.001,0.0
31/03/2022,06:09:30,0.008,0.0,0.001,0.0
31/03/2022,06:10:21,0.009,0.0,0.001,0.0
31/03/2022,06:11:22,0.010,0.0,0.001,0.0
31/03/2022,06:12:22,0.009,0.0,0.001,0.0
31/03/2022,06:13:21,0.009,0.0,0.001,0.0
31/03/2022,06:14:23,0.011,0.0,0.002,0.001
31/03/2022,06:15:22,0.010,0.0,0.002,0.0
31/03/2022,06:16:22,0.011,0.0,0.002,0.0
31/03/2022,06:17:22,0.011,0.0,0.002,0.0
31/03/2022,06:18:21,0.011,0.0,0.002,0.0
31/03/2022,06:19:22,0.013,0.0,0.002,0.0
31/03/2022,06:20:30,0.013,0.0,0.003,0.001
31/03/2022,06:21:21,0.013,0.0,0.003,0.0
31/03/2022,06:22:22,0.012,0.0,0.003,0.0
31/03/2022,06:23:22,0.013,0.0,0.003,0.0
31/03/2022,06:24:23,0.014,0.0,0.004,0.001
31/03/2022,06:25:22,0.015,0.0,0.004,0.0
31/03/2022,06:26:22,0.015,0.0,0.004,0.0
31/03/2022,06:27:21,0.015,0.0,0.004,0.0
31/03/2022,06:28:22,0.015,0.0,0.005,0.001
31/03/2022,06:29:22,0.013,0.0,0.005,0.0
31/03/2022,06:30:30,0.012,0.0,0.005,0.0
31/03/2022,06:32:23,0.014,0.0,0.005,0.0
31/03/2022,06:33:22,0.017,0.0,0.006,0.001
31/03/2022,06:34:21,0.018,0.0,0.006,0.0
31/03/2022,06:35:22,0.018,0.0,0.006,0.0
31/03/2022,06:36:22,0.018,0.0,0.007,0.001
31/03/2022,06:37:21,0.019,0.0,0.007,0.0
31/03/2022,06:38:30,0.020,0.0,0.007,0.0
31/03/2022,06:40:22,0.023,0.0,0.008,0.001
31/03/2022,06:41:22,0.025,0.0,0.008,0.0
31/03/2022,06:42:22,0.026,0.0,0.009,0.001
31/03/2022,06:43:23,0.026,0.0,0.009,0.0
31/03/2022,06:44:22,0.028,0.0,0.01,0.001
31/03/2022,06:45:22,0.029,0.0,0.01,0.0
31/03/2022,06:46:22,0.029,0.0,0.011,0.001
31/03/2022,06:47:22,0.030,0.0,0.011,0.0
31/03/2022,06:48:22,0.031,0.0,0.012,0.001
31/03/2022,06:49:22,0.032,0.0,0.012,0.0
31/03/2022,06:50:22,0.031,0.0,0.013,0.001
31/03/2022,06:51:30,0.034,0.0,0.013,0.0
31/03/2022,06:52:21,0.034,0.0,0.014,0.001
31/03/2022,06:53:22,0.033,0.0,0.014,0.0
31/03/2022,06:54:21,0.032,0.0,0.015,0.001
31/03/2022,06:55:22,0.031,0.0,0.015,0.0
31/03/2022,06:56:22,0.030,0.0,0.016,0.001
31/03/2022,06:57:22,0.032,0.0,0.016,0.0
31/03/2022,06:58:21,0.033,0.0,0.017,0.001
31/03/2022,06:59:30,0.033,0.0,0.018,0.001
31/03/2022,07:01:22,0.038,0.0,0.019,0.001
31/03/2022,07:02:22,0.043,0.0,0.019,0.0
31/03/2022,07:03:21,0.044,0.0,0.02,0.001
31/03/2022,07:04:22,0.040,0.0,0.021,0.001
31/03/2022,07:05:21,0.038,0.0,0.021,0.0
31/03/2022,07:06:21,0.043,0.0,0.022,0.001
31/03/2022,07:07:22,0.042,0.0,0.023,0.001
31/03/2022,07:08:22,0.034,0.0,0.023,0.0
31/03/2022,07:09:21,0.029,0.0,0.024,0.001
31/03/2022,07:10:22,0.029,0.0,0.024,0.0
31/03/2022,07:11:22,0.036,0.0,0.025,0.001
31/03/2022,07:12:21,0.037,0.0,0.026,0.001
31/03/2022,07:13:21,0.035,0.0,0.026,0.0
31/03/2022,07:14:31,0.036,0.0,0.027,0.001
31/03/2022,07:15:30,0.036,0.0,0.027,0.0
31/03/2022,07:16:22,0.036,0.0,0.028,0.001
31/03/2022,07:17:30,0.034,0.0,0.029,0.001
31/03/2022,07:19:22,0.035,0.0,0.03,0.001
31/03/2022,07:20:21,0.036,0.0,0.03,0.0
31/03/2022,07:21:22,0.040,0.0,0.031,0.001
31/03/2022,07:22:21,0.053,0.0,0.032,0.001
31/03/2022,07:23:22,0.058,0.0,0.033,0.001
31/03/2022,07:24:22,0.060,0.0,0.034,0.001
31/03/2022,07:25:22,0.058,0.0,0.035,0.001
31/03/2022,07:26:22,0.057,0.0,0.036,0.001
31/03/2022,07:27:22,0.058,0.0,0.037,0.001
31/03/2022,07:28:21,0.047,0.0,0.037,0.0
31/03/2022,07:29:22,0.042,0.0,0.038,0.001
31/03/2022,07:30:21,0.049,0.0,0.039,0.001
31/03/2022,07:31:23,0.047,0.0,0.04,0.001
31/03/2022,07:32:22,0.048,0.0,0.041,0.001
31/03/2022,07:33:22,0.045,0.0,0.041,0.0
31/03/2022,07:34:22,0.045,0.0,0.042,0.001
31/03/2022,07:35:22,0.043,0.0,0.043,0.001
31/03/2022,07:36:30,0.044,0.0,0.044,0.001
31/03/2022,07:37:21,0.042,0.0,0.044,0.0
31/03/2022,07:38:22,0.043,0.0,0.045,0.001
31/03/2022,07:39:22,0.059,0.0,0.046,0.001
31/03/2022,07:40:22,0.068,0.0,0.047,0.001
31/03/2022,07:41:22,0.073,0.0,0.048,0.001
31/03/2022,07:42:22,0.063,0.0,0.049,0.001
31/03/2022,07:43:22,0.053,0.0,0.05,0.001
31/03/2022,07:44:22,0.051,0.0,0.051,0.001
31/03/2022,07:45:22,0.049,0.0,0.052,0.001
31/03/2022,07:46:30,0.058,0.0,0.053,0.001
31/03/2022,07:47:21,0.078,0.0,0.054,0.001
31/03/2022,07:48:21,0.106,0.0,0.055,0.001
31/03/2022,07:49:22,0.116,0.0,0.057,0.002
31/03/2022,07:50:24,0.121,0.0,0.059,0.002
31/03/2022,07:51:22,0.125,0.0,0.061,0.002
31/03/2022,07:52:22,0.128,0.0,0.064,0.003
31/03/2022,07:53:22,0.130,0.0,0.066,0.002
31/03/2022,07:54:24,0.103,0.0,0.068,0.002
31/03/2022,07:55:31,0.087,0.0,0.069,0.001
31/03/2022,07:57:22,0.085,0.0,0.072,0.003
31/03/2022,07:58:22,0.088,0.0,0.073,0.001
31/03/2022,07:59:22,0.090,0.0,0.075,0.002
31/03/2022,08:00:22,0.078,0.0,0.076,0.001
31/03/2022,08:01:22,0.057,0.0,0.077,0.001
31/03/2022,08:02:22,0.058,0.0,0.078,0.001
31/03/2022,08:03:22,0.080,0.0,0.079,0.001
31/03/2022,08:04:30,0.074,0.0,0.081,0.002
31/03/2022,08:06:22,0.107,0.0,0.084,0.003
31/03/2022,08:07:22,0.103,0.0,0.086,0.002
31/03/2022,08:08:21,0.123,0.0,0.087,0.001
31/03/2022,08:09:23,0.133,0.0,0.09,0.003
31/03/2022,08:10:22,0.112,0.0,0.092,0.002
31/03/2022,08:11:22,0.104,0.0,0.093,0.001
31/03/2022,08:12:22,0.115,0.0,0.095,0.002
31/03/2022,08:13:22,0.105,0.0,0.097,0.002
31/03/2022,08:14:22,0.082,0.0,0.099,0.002
31/03/2022,08:15:31,0.066,0.0,0.1,0.001
31/03/2022,08:17:23,0.063,0.0,0.102,0.002
31/03/2022,08:18:21,0.074,0.0,0.103,0.001
31/03/2022,08:19:22,0.084,0.0,0.104,0.001
31/03/2022,08:20:22,0.093,0.0,0.106,0.002
31/03/2022,08:21:21,0.093,0.0,0.108,0.002
31/03/2022,08:22:22,0.072,0.0,0.109,0.001
31/03/2022,08:23:21,0.064,0.0,0.11,0.001
31/03/2022,08:24:22,0.056,0.0,0.111,0.001
31/03/2022,08:25:22,0.050,0.0,0.112,0.001
31/03/2022,08:26:22,0.044,0.0,0.113,0.001
31/03/2022,08:27:22,0.042,0.0,0.113,0.0
31/03/2022,08:28:22,0.045,0.0,0.114,0.001
31/03/2022,08:29:24,0.047,0.0,0.115,0.001
31/03/2022,08:30:30,0.052,0.0,0.116,0.001
31/03/2022,08:31:21,0.070,0.0,0.117,0.001
31/03/2022,08:32:23,0.089,0.0,0.118,0.001
31/03/2022,08:33:32,0.097,0.0,0.12,0.002
31/03/2022,08:35:23,0.146,0.0,0.124,0.004
31/03/2022,08:36:22,0.160,0.0,0.126,0.002
31/03/2022,08:37:22,0.164,0.0,0.129,0.003
31/03/2022,08:38:22,0.154,0.0,0.132,0.003
31/03/2022,08:39:22,0.135,0.0,0.134,0.002
31/03/2022,08:40:30,0.124,0.0,0.136,0.002
31/03/2022,08:41:21,0.135,0.0,0.138,0.002
31/03/2022,08:42:22,0.159,0.0,0.141,0.003
31/03/2022,08:43:22,0.171,0.0,0.143,0.002
31/03/2022,08:44:22,0.145,0.0,0.146,0.003
31/03/2022,08:45:22,0.126,0.0,0.148,0.002
31/03/2022,08:46:22,0.140,0.0,0.151,0.003
31/03/2022,08:47:22,0.166,0.0,0.153,0.002
31/03/2022,08:48:22,0.175,0.0,0.156,0.003
31/03/2022,08:49:22,0.164,0.0,0.159,0.003
31/03/2022,08:50:23,0.160,0.0,0.161,0.002
31/03/2022,08:51:31,0.145,0.0,0.164,0.003
31/03/2022,08:53:22,0.173,0.0,0.169,0.005
31/03/2022,08:54:22,0.216,0.0,0.173,0.004
31/03/2022,08:55:22,0.223,1.0,0.176,0.003
31/03/2022,08:56:22,0.235,1.0,0.18,0.004
31/03/2022,08:57:22,0.194,0.0,0.184,0.004
31/03/2022,08:58:22,0.194,0.0,0.187,0.003
31/03/2022,08:59:22,0.178,0.0,0.19,0.003
31/03/2022,09:00:22,0.164,0.0,0.193,0.003
31/03/2022,09:01:22,0.131,0.0,0.195,0.002
31/03/2022,09:02:22,0.125,0.0,0.197,0.002
31/03/2022,09:03:22,0.101,0.0,0.199,0.002
31/03/2022,09:04:22,0.076,0.0,0.201,0.002
31/03/2022,09:05:23,0.062,0.0,0.202,0.001
31/03/2022,09:06:22,0.064,0.0,0.203,0.001
31/03/2022,09:07:22,0.065,0.0,0.204,0.001
31/03/2022,09:08:22,0.070,0.0,0.205,0.001
31/03/2022,09:09:31,0.092,0.0,0.207,0.002
31/03/2022,09:11:22,0.110,0.0,0.21,0.003
31/03/2022,09:12:30,0.138,0.0,0.212,0.002
31/03/2022,09:13:22,0.125,0.0,0.214,0.002
31/03/2022,09:14:22,0.106,0.0,0.216,0.002
31/03/2022,09:15:22,0.084,0.0,0.218,0.002
31/03/2022,09:16:22,0.076,0.0,0.219,0.001
31/03/2022,09:17:24,0.105,0.0,0.22,0.001
31/03/2022,09:18:22,0.135,0.0,0.222,0.002
31/03/2022,09:19:22,0.163,0.0,0.225,0.003
31/03/2022,09:20:22,0.206,0.0,0.228,0.003
31/03/2022,09:21:22,0.215,0.0,0.232,0.004
31/03/2022,09:22:22,0.199,0.0,0.235,0.003
31/03/2022,09:23:22,0.159,0.0,0.238,0.003
31/03/2022,09:24:22,0.146,0.0,0.241,0.003
31/03/2022,09:25:22,0.151,0.0,0.243,0.002
31/03/2022,09:26:22,0.180,0.0,0.246,0.003
31/03/2022,09:27:23,0.168,0.0,0.249,0.003
31/03/2022,09:28:22,0.202,0.0,0.252,0.003
31/03/2022,09:29:22,0.187,0.0,0.255,0.003
31/03/2022,09:30:22,0.165,0.0,0.258,0.003
31/03/2022,09:31:22,0.152,0.0,0.261,0.003
31/03/2022,09:32:22,0.174,0.0,0.263,0.002
31/03/2022,09:33:30,0.199,0.0,0.267,0.004
31/03/2022,09:35:23,0.161,0.0,0.272,0.005
31/03/2022,09:36:22,0.210,0.0,0.275,0.003
31/03/2022,09:37:22,0.239,1.0,0.279,0.004
31/03/2022,09:38:22,0.288,1.0,0.283,0.004
31/03/2022,09:39:38,0.310,1.0,0.289,0.006
31/03/2022,09:41:23,0.163,0.0,0.296,0.007
31/03/2022,09:42:23,0.205,0.0,0.299,0.003
31/03/2022,09:43:30,0.255,1.0,0.303,0.004
31/03/2022,09:44:21,0.302,1.0,0.307,0.004
31/03/2022,09:45:22,0.352,1.0,0.313,0.006
31/03/2022,09:46:22,0.371,1.0,0.319,0.006
31/03/2022,09:47:22,0.395,1.0,0.325,0.006
31/03/2022,09:48:22,0.416,1.0,0.332,0.007
31/03/2022,09:49:22,0.424,1.0,0.339,0.007
31/03/2022,09:50:22,0.428,1.0,0.346,0.007
31/03/2022,09:51:22,0.444,1.0,0.353,0.007
31/03/2022,09:52:22,0.479,1.0,0.361,0.008
31/03/2022,09:53:22,0.487,1.0,0.369,0.008
31/03/2022,09:54:24,0.529,1.0,0.378,0.009
31/03/2022,09:55:22,0.560,1.0,0.386,0.008
31/03/2022,09:56:30,0.442,1.0,0.397,0.011
31/03/2022,09:58:23,0.597,1.0,0.415,0.018
31/03/2022,09:59:22,0.576,1.0,0.424,0.009
31/03/2022,10:00:22,0.569,1.0,0.433,0.009
31/03/2022,10:01:22,0.582,1.0,0.442,0.009
31/03/2022,10:02:22,0.320,1.0,0.45,0.008
31/03/2022,10:03:22,0.221,1.0,0.455,0.005
31/03/2022,10:04:22,0.408,1.0,0.459,0.004
31/03/2022,10:05:22,0.271,1.0,0.465,0.006
31/03/2022,10:06:22,0.252,1.0,0.47,0.005
31/03/2022,10:07:22,0.197,0.0,0.473,0.003
31/03/2022,10:08:22,0.208,0.0,0.477,0.004
31/03/2022,10:09:22,0.272,1.0,0.481,0.004
31/03/2022,10:10:22,0.367,1.0,0.486,0.005
31/03/2022,10:11:21,0.550,1.0,0.494,0.008
31/03/2022,10:12:24,0.397,1.0,0.501,0.007
31/03/2022,10:13:22,0.433,1.0,0.508,0.007
31/03/2022,10:14:22,0.635,1.0,0.518,0.01
31/03/2022,10:15:22,0.638,1.0,0.529,0.011
31/03/2022,10:16:22,0.479,1.0,0.538,0.009
31/03/2022,10:17:31,0.441,1.0,0.548,0.01
31/03/2022,10:19:22,0.651,1.0,0.566,0.018
31/03/2022,10:20:22,0.661,2.0,0.577,0.011
31/03/2022,10:21:22,0.662,2.0,0.588,0.011
31/03/2022,10:22:23,0.633,1.0,0.599,0.011
31/03/2022,10:23:22,0.646,2.0,0.61,0.011
31/03/2022,10:24:22,0.682,2.0,0.621,0.011
31/03/2022,10:25:22,0.679,2.0,0.633,0.012
31/03/2022,10:26:22,0.470,1.0,0.643,0.01
31/03/2022,10:27:31,0.711,2.0,0.654,0.011
31/03/2022,10:28:22,0.705,2.0,0.665,0.011
31/03/2022,10:29:22,0.710,2.0,0.676,0.011
31/03/2022,10:30:31,0.722,2.0,0.689,0.013
31/03/2022,10:32:23,0.683,2.0,0.705,0.016
31/03/2022,10:33:31,0.474,1.0,0.716,0.011
31/03/2022,10:34:22,0.741,2.0,0.725,0.009
31/03/2022,10:35:22,0.612,1.0,0.736,0.011
31/03/2022,10:36:22,0.735,2.0,0.746,0.01
31/03/2022,10:37:22,0.760,2.0,0.757,0.011
31/03/2022,10:38:22,0.563,1.0,0.768,0.011
31/03/2022,10:39:22,0.750,2.0,0.779,0.011
31/03/2022,10:40:22,0.453,1.0,0.788,0.009
31/03/2022,10:41:23,0.442,1.0,0.796,0.008
31/03/2022,10:42:22,0.452,1.0,0.803,0.007
31/03/2022,10:43:22,0.431,1.0,0.811,0.008
31/03/2022,10:44:22,0.571,1.0,0.819,0.008
31/03/2022,10:45:22,0.778,2.0,0.831,0.012
31/03/2022,10:46:22,0.737,2.0,0.842,0.011
31/03/2022,10:47:22,0.422,1.0,0.85,0.008
31/03/2022,10:48:22,0.429,1.0,0.857,0.007
31/03/2022,10:49:22,0.426,1.0,0.864,0.007
31/03/2022,10:50:22,0.575,1.0,0.872,0.008